Time,TemperatureF,DewpointF,PressureIn,WindDirection,WindDirectionDegrees,WindSpeedMPH,WindSpeedGustMPH,Humidity,HourlyPrecipIn,Conditions,Clouds,dailyrainin,SoftwareType,DateUTC
2013-05-15 00:07:00,76.5,57.0,29.70,SSW,200,2.0,12.0,51,0.00,,,0.00,weatherlink.com 1.10,2013-05-15 05:07:00,
2013-05-15 00:22:00,76.4,57.0,29.71,NW,304,2.0,11.0,51,0.00,,,0.00,weatherlink.com 1.10,2013-05-15 05:22:00,
2013-05-15 00:37:00,76.4,57.0,29.70,WNW,295,2.0,11.0,51,0.00,,,0.00,weatherlink.com 1.10,2013-05-15 05:37:00,
2013-05-15 00:52:00,76.3,57.0,29.71,ESE,121,8.0,14.0,51,0.00,,,0.00,weatherlink.com 1.10,2013-05-15 05:52:00,
2013-05-15 01:07:00,76.3,57.0,29.72,WNW,290,5.0,13.0,52,0.00,,,0.00,weatherlink.com 1.10,2013-05-15 06:07:00,
2013-05-15 01:22:00,76.2,58.0,29.71,West,275,8.0,13.0,53,0.00,,,0.00,weatherlink.com 1.10,2013-05-15 06:22:00,
2013-05-15 01:37:00,76.0,59.0,29.72,WSW,246,6.0,13.0,55,0.00,,,0.00,weatherlink.com 1.10,2013-05-15 06:37:00,
2013-05-15 01:52:00,75.6,59.0,29.73,NW,313,5.0,19.0,56,0.00,,,0.00,weatherlink.com 1.10,2013-05-15 06:52:00,
2013-05-15 02:07:00,75.1,59.0,29.73,WNW,295,5.0,13.0,58,0.00,,,0.00,weatherlink.com 1.10,2013-05-15 07:07:00,
2013-05-15 02:23:00,74.7,59.0,29.73,SE,133,3.0,12.0,59,0.00,,,0.00,weatherlink.com 1.10,2013-05-15 07:23:00,
2013-05-15 02:38:00,74.6,59.0,29.72,West,281,12.0,17.0,59,0.00,,,0.00,weatherlink.com 1.10,2013-05-15 07:38:00,
2013-05-15 02:53:00,74.1,59.0,29.72,WNW,293,6.0,14.0,60,0.00,,,0.00,weatherlink.com 1.10,2013-05-15 07:53:00,
2013-05-15 03:08:00,73.7,59.0,29.73,SW,219,6.0,18.0,61,0.00,,,0.00,weatherlink.com 1.10,2013-05-15 08:08:00,
2013-05-15 03:23:00,72.8,59.0,29.74,WNW,284,10.0,12.0,63,0.00,,,0.00,weatherlink.com 1.10,2013-05-15 08:23:00,
2013-05-15 03:38:00,71.7,60.0,29.75,West,261,4.0,12.0,66,0.00,,,0.00,weatherlink.com 1.10,2013-05-15 08:38:00,
2013-05-15 03:53:00,71.4,60.0,29.75,West,274,4.0,9.0,67,0.00,,,0.00,weatherlink.com 1.10,2013-05-15 08:53:00,
2013-05-15 04:08:00,71.4,60.0,29.76,West,281,8.0,12.0,67,0.00,,,0.00,weatherlink.com 1.10,2013-05-15 09:08:00,
2013-05-15 04:23:00,71.3,60.0,29.76,WSW,243,5.0,11.0,67,0.00,,,0.00,weatherlink.com 1.10,2013-05-15 09:23:00,
2013-05-15 04:38:00,71.8,60.0,29.76,WNW,284,4.0,11.0,67,0.00,,,0.00,weatherlink.com 1.10,2013-05-15 09:38:00,
2013-05-15 04:53:00,71.8,60.0,29.76,WSW,243,3.0,11.0,66,0.00,,,0.00,weatherlink.com 1.10,2013-05-15 09:53:00,
2013-05-15 05:08:00,71.8,60.0,29.76,WNW,289,2.0,12.0,66,0.00,,,0.00,weatherlink.com 1.10,2013-05-15 10:08:00,
2013-05-15 05:23:00,71.6,60.0,29.77,WNW,295,6.0,14.0,67,0.00,,,0.00,weatherlink.com 1.10,2013-05-15 10:23:00,
2013-05-15 05:38:00,71.3,60.0,29.77,WNW,299,6.0,11.0,67,0.00,,,0.00,weatherlink.com 1.10,2013-05-15 10:38:00,
2013-05-15 05:53:00,70.8,60.0,29.77,WNW,301,3.0,10.0,69,0.00,,,0.00,weatherlink.com 1.10,2013-05-15 10:53:00,
2013-05-15 06:08:00,70.2,60.0,29.78,West,259,3.0,6.0,70,0.00,,,0.00,weatherlink.com 1.10,2013-05-15 11:08:00,
2013-05-15 06:23:00,69.4,60.0,29.79,WSW,242,1.0,5.0,72,0.00,,,0.00,weatherlink.com 1.10,2013-05-15 11:23:00,
2013-05-15 06:38:00,69.0,60.0,29.79,West,278,2.0,6.0,73,0.00,,,0.00,weatherlink.com 1.10,2013-05-15 11:38:00,
2013-05-15 06:53:00,68.8,60.0,29.79,WNW,287,2.0,5.0,74,0.00,,,0.00,weatherlink.com 1.10,2013-05-15 11:53:00,
2013-05-15 07:23:00,70.1,61.0,29.80,West,276,6.0,8.0,73,0.00,,,0.00,weatherlink.com 1.10,2013-05-15 12:23:00,
2013-05-15 07:38:00,69.9,60.0,29.80,WNW,300,2.0,8.0,72,0.00,,,0.00,weatherlink.com 1.10,2013-05-15 12:38:00,
2013-05-15 08:38:00,70.2,61.0,29.81,NW,325,2.0,3.0,73,0.00,,,0.00,weatherlink.com 1.10,2013-05-15 13:38:00,
2013-05-15 08:53:00,71.2,61.0,29.81,WSW,252,8.0,8.0,70,0.00,,,0.00,weatherlink.com 1.10,2013-05-15 13:53:00,
2013-05-15 09:08:00,72.7,61.0,29.80,West,280,6.0,8.0,66,0.00,,,0.00,weatherlink.com 1.10,2013-05-15 14:08:00,
2013-05-15 09:38:00,75.0,61.0,29.81,WNW,300,7.0,12.0,61,0.00,,,0.00,weatherlink.com 1.10,2013-05-15 14:38:00,
2013-05-15 09:53:00,73.9,60.0,29.81,NNW,335,2.0,12.0,62,0.00,,,0.00,weatherlink.com 1.10,2013-05-15 14:53:00,
2013-05-15 10:08:00,72.8,60.0,29.82,NW,305,5.0,9.0,64,0.00,,,0.00,weatherlink.com 1.10,2013-05-15 15:08:00,
2013-05-15 10:24:00,72.7,61.0,29.83,NNW,333,3.0,8.0,66,0.00,,,0.00,weatherlink.com 1.10,2013-05-15 15:24:00,
2013-05-15 10:39:00,73.9,61.0,29.82,West,262,4.0,8.0,64,0.00,,,0.00,weatherlink.com 1.10,2013-05-15 15:39:00,
2013-05-15 10:54:00,75.4,63.0,29.82,WSW,254,6.0,6.0,65,0.00,,,0.00,weatherlink.com 1.10,2013-05-15 15:54:00,
2013-05-15 11:09:00,73.6,62.0,29.82,NE,36,0.0,6.0,66,0.00,,,0.00,weatherlink.com 1.10,2013-05-15 16:09:00,
2013-05-15 11:24:00,71.5,62.0,29.83,South,172,0.0,2.0,73,0.01,,,0.01,weatherlink.com 1.10,2013-05-15 16:24:00,
2013-05-15 11:54:00,71.1,64.0,29.82,SSE,155,0.0,3.0,78,0.01,,,0.01,weatherlink.com 1.10,2013-05-15 16:54:00,
2013-05-15 12:09:00,74.5,62.0,29.82,SSE,148,3.0,5.0,66,0.01,,,0.01,weatherlink.com 1.10,2013-05-15 17:09:00,
2013-05-15 12:39:00,76.4,60.0,29.82,WSW,252,0.0,3.0,58,0.00,,,0.01,weatherlink.com 1.10,2013-05-15 17:39:00,
2013-05-15 12:54:00,76.9,57.0,29.82,SE,139,0.0,1.0,50,0.00,,,0.01,weatherlink.com 1.10,2013-05-15 17:54:00,
2013-05-15 13:09:00,76.9,58.0,29.81,SSW,198,2.0,3.0,53,0.00,,,0.01,weatherlink.com 1.10,2013-05-15 18:09:00,
2013-05-15 13:39:00,78.8,57.0,29.82,SSW,203,2.0,4.0,48,0.00,,,0.01,weatherlink.com 1.10,2013-05-15 18:39:00,
2013-05-15 13:54:00,79.3,56.0,29.82,WNW,294,2.0,5.0,45,0.00,,,0.01,weatherlink.com 1.10,2013-05-15 18:54:00,
2013-05-15 14:09:00,79.7,58.0,29.81,West,276,0.0,5.0,48,0.00,,,0.01,weatherlink.com 1.10,2013-05-15 19:09:00,
2013-05-15 14:24:00,80.5,56.0,29.81,WNW,296,1.0,5.0,43,0.00,,,0.01,weatherlink.com 1.10,2013-05-15 19:24:00,
2013-05-15 14:39:00,81.0,54.0,29.80,West,278,2.0,5.0,39,0.00,,,0.01,weatherlink.com 1.10,2013-05-15 19:39:00,
2013-05-15 14:54:00,81.2,56.0,29.80,SE,134,1.0,5.0,42,0.00,,,0.01,weatherlink.com 1.10,2013-05-15 19:54:00,
2013-05-15 15:09:00,81.5,55.0,29.80,WSW,249,2.0,8.0,40,0.00,,,0.01,weatherlink.com 1.10,2013-05-15 20:09:00,
2013-05-15 15:24:00,80.7,57.0,29.81,WNW,300,3.0,10.0,44,0.00,,,0.01,weatherlink.com 1.10,2013-05-15 20:24:00,
2013-05-15 15:54:00,81.1,56.0,29.80,NW,309,2.0,7.0,43,0.00,,,0.01,weatherlink.com 1.10,2013-05-15 20:54:00,
2013-05-15 16:09:00,81.1,55.0,29.80,NW,305,5.0,8.0,40,0.00,,,0.01,weatherlink.com 1.10,2013-05-15 21:09:00,
2013-05-15 16:24:00,81.0,55.0,29.79,WNW,291,1.0,5.0,41,0.00,,,0.01,weatherlink.com 1.10,2013-05-15 21:24:00,
2013-05-15 16:54:00,82.7,53.0,29.77,SE,127,3.0,4.0,36,0.00,,,0.01,weatherlink.com 1.10,2013-05-15 21:54:00,
2013-05-15 17:10:00,82.6,54.0,29.77,SSW,205,0.0,4.0,38,0.00,,,0.01,weatherlink.com 1.10,2013-05-15 22:10:00,
2013-05-15 17:39:00,82.5,55.0,29.79,SSE,162,0.0,0.0,39,0.00,,,0.01,weatherlink.com 1.10,2013-05-15 22:39:00,
2013-05-15 17:54:00,82.6,51.0,29.79,NW,311,0.0,2.0,34,0.00,,,0.01,weatherlink.com 1.10,2013-05-15 22:54:00,
2013-05-15 18:24:00,82.7,56.0,29.79,WNW,302,0.0,2.0,40,0.00,,,0.01,weatherlink.com 1.10,2013-05-15 23:24:00,
2013-05-15 18:39:00,81.9,52.0,29.78,WNW,302,0.0,0.0,36,0.00,,,0.01,weatherlink.com 1.10,2013-05-15 23:39:00,
2013-05-15 18:54:00,81.2,52.0,29.78,WNW,302,0.0,0.0,37,0.00,,,0.01,weatherlink.com 1.10,2013-05-15 23:54:00,
2013-05-15 19:09:00,80.6,58.0,29.77,WNW,302,0.0,0.0,47,0.00,,,0.01,weatherlink.com 1.10,2013-05-16 00:09:00,
2013-05-15 19:24:00,80.0,56.0,29.78,WNW,302,0.0,0.0,44,0.00,,,0.01,weatherlink.com 1.10,2013-05-16 00:24:00,
2013-05-15 19:39:00,79.2,56.0,29.78,WNW,302,0.0,0.0,45,0.00,,,0.01,weatherlink.com 1.10,2013-05-16 00:39:00,
2013-05-15 19:54:00,76.2,55.0,29.79,WNW,302,0.0,0.0,48,0.00,,,0.01,weatherlink.com 1.10,2013-05-16 00:54:00,
2013-05-15 20:24:00,70.7,54.0,29.79,WNW,302,0.0,0.0,56,0.00,,,0.01,weatherlink.com 1.10,2013-05-16 01:24:00,
2013-05-15 20:39:00,69.4,54.0,29.80,WNW,302,0.0,0.0,58,0.00,,,0.01,weatherlink.com 1.10,2013-05-16 01:39:00,
2013-05-15 20:54:00,67.4,54.0,29.80,WNW,302,0.0,0.0,62,0.00,,,0.01,weatherlink.com 1.10,2013-05-16 01:54:00,
2013-05-15 21:09:00,66.0,54.0,29.80,WNW,302,0.0,0.0,65,0.00,,,0.01,weatherlink.com 1.10,2013-05-16 02:09:00,
2013-05-15 21:24:00,65.7,53.0,29.80,WNW,302,0.0,0.0,64,0.00,,,0.01,weatherlink.com 1.10,2013-05-16 02:24:00,
2013-05-15 21:40:00,64.7,54.0,29.81,WNW,302,0.0,0.0,68,0.00,,,0.01,weatherlink.com 1.10,2013-05-16 02:40:00,
2013-05-15 22:10:00,64.2,54.0,29.80,WNW,302,0.0,0.0,69,0.00,,,0.01,weatherlink.com 1.10,2013-05-16 03:10:00,
2013-05-15 22:25:00,63.2,54.0,29.81,North,11,0.0,2.0,71,0.00,,,0.01,weatherlink.com 1.10,2013-05-16 03:25:00,
2013-05-15 22:40:00,62.2,53.0,29.81,North,11,0.0,0.0,72,0.00,,,0.01,weatherlink.com 1.10,2013-05-16 03:40:00,
2013-05-15 22:55:00,61.0,53.0,29.81,North,11,0.0,0.0,74,0.00,,,0.01,weatherlink.com 1.10,2013-05-16 03:55:00,
2013-05-15 23:10:00,59.6,52.0,29.80,North,11,0.0,0.0,77,0.00,,,0.01,weatherlink.com 1.10,2013-05-16 04:10:00,
2013-05-15 23:25:00,59.8,52.0,29.80,North,11,0.0,0.0,74,0.00,,,0.01,weatherlink.com 1.10,2013-05-16 04:25:00,
2013-05-15 23:40:00,59.7,51.0,29.80,North,11,0.0,0.0,72,0.00,,,0.01,weatherlink.com 1.10,2013-05-16 04:40:00,
2013-05-15 23:55:00,60.3,50.0,29.81,North,11,0.0,0.0,68,0.00,,,0.01,weatherlink.com 1.10,2013-05-16 04:55:00,